[[{"header":{"parameterUnit":"m.s-1","parameterCategory":1,"la1":30.2991,"la2":30.254,"lo1":-89.0895,"lo2":-89.0444,"dy":0.0017,"dx":0.0017,"nx":28,"ny":28,"refTime":"2024-02-24T03:00:00:Z","depth":0,"parameterNumber":2,"parameterNumberName":"U-component_of_WINDS"},"data":[0,0,0,0,0,0,0,0,0,0,0,0,0,0,0,0,0,0,0,0,0,0,0,0,0,0,0,0,0,0,0,0,0,0,0,0,0,0,0,0,0,0,0,0,0,0,0,0,0,0,0,0,0,0,0,0,0,0,1.5718,1.5719,0,1.5754,1.5754,1.5755,1.5753,1.5752,1.5752,1.5751,1.5787,1.5788,1.5789,0,0,0,0,0,0,0,0,0,0,0,0,0,1.5649,1.5651,1.5718,1.5719,1.5719,1.5754,1.5754,1.5755,1.5753,1.5752,1.5752,1.5751,1.5786,1.5788,1.579,0,0,0,0,0,0,0,0,0,0,0,0,0,1.5682,1.5651,1.5718,1.5723,1.5723,1.5754,1.5754,1.5755,1.5753,1.5752,1.5751,1.5751,1.5786,1.5788,1.579,1.5818,0,0,1.5796,1.5797,0,0,0,0,0,0,0,0,1.568,1.5684,1.5721,1.5722,1.5723,1.5748,1.5743,1.5776,1.5753,1.5742,1.5751,1.575,1.5774,1.5777,1.5786,1.582,1.5821,1.5796,1.5798,1.5799,1.5799,0,0,0,0,0,0,0,1.5677,1.5683,1.5732,1.5722,1.5723,1.5723,1.5726,1.5749,1.5762,1.5743,1.5743,1.5747,1.5775,1.5784,1.5786,1.5822,1.5796,1.5798,1.58,1.58,1.5882,1.5883,0,0,0,0,0,0,1.5674,1.5681,1.5731,1.5733,1.5699,1.5725,1.5729,1.5741,1.5762,1.5764,1.5747,1.5747,1.578,1.5784,1.5788,1.5823,1.5799,1.5801,1.5802,1.5881,1.5882,1.5883,0,0,0,0,0,0,1.5673,1.5679,1.573,1.5707,1.5714,1.5727,1.574,1.5742,1.5751,1.5765,1.5767,1.5754,1.578,1.5785,1.5811,1.5824,1.5802,1.5803,1.588,1.5882,1.5883,1.5893,0,0,0,0,0,0,1.5671,1.5678,1.5689,1.5707,1.5715,1.5752,1.5741,1.5743,1.5755,1.5754,1.5772,1.5774,1.578,1.5808,1.5813,1.5827,1.5805,1.5879,1.5881,1.5883,1.5892,1.5895,1.5898,0,0,0,0,0,1.5668,1.569,1.569,1.5696,1.5728,1.5753,1.5757,1.5763,1.5756,1.5767,1.5776,1.5774,1.5822,1.581,1.5816,1.5831,1.5878,1.588,1.5882,1.5891,1.5894,1.5898,0,0,0,0,0,0,1.5672,1.5692,1.5692,1.572,1.5735,1.5753,1.5767,1.5767,1.5783,1.5782,1.5788,1.5793,1.5819,1.5828,1.5814,1.586,1.5849,1.5853,1.5854,1.5857,1.586,1.5857,1.5807,0,0,0,0,0,1.5677,1.5695,1.5712,1.5735,1.5742,1.5753,1.5764,1.5768,1.5783,1.5789,1.58,1.5815,1.5834,1.5846,1.5864,1.5893,1.5898,1.5906,1.5909,1.5911,1.5914,1.5932,1.5936,1.589,1.589,1.589,0,0,1.5685,1.5699,1.571,1.5736,1.5748,1.5767,1.5759,1.5779,1.5793,1.5792,1.5818,1.5827,1.5844,1.5872,1.5885,1.588,1.5928,1.5914,1.5916,1.5917,1.5934,1.5939,1.5942,1.5891,1.5891,1.5891,0,0,1.5711,1.5723,1.5744,1.5756,1.5775,1.5782,1.5787,1.5805,1.5812,1.5838,1.5838,1.5855,1.5886,1.5899,1.591,1.5942,1.5941,1.5948,1.5962,1.5979,1.5983,1.5986,1.5999,1.6003,1.5951,1.5951,1.5951,0,1.5719,1.5748,1.5755,1.5776,1.5788,1.5789,1.581,1.5822,1.5845,1.5854,1.5848,1.5888,1.59,1.5932,1.594,1.5948,1.5955,1.5946,1.5982,1.5985,1.5989,1.6,1.6005,1.5951,1.5951,1.5951,1.5951,0,1.5758,1.5778,1.5793,1.5817,1.583,1.5852,1.5862,1.5875,1.5877,1.5886,1.5913,1.5927,1.5948,1.5956,1.5958,1.5989,1.5985,1.5981,1.597,1.5994,1.6005,1.6009,1.5952,1.5952,1.5952,1.5952,0,0,1.5786,1.5814,1.582,1.5831,1.5852,1.5868,1.5889,1.5911,1.5922,1.5939,1.5957,1.5985,1.5981,1.5993,1.5997,1.6012,1.6038,1.6006,1.6007,1.6012,1.6074,1.6077,1.6082,1.6038,1.6039,1.6039,1.6073,0,1.5815,1.5854,1.5861,1.5895,1.5914,1.5916,1.5935,1.595,1.5959,1.5977,1.5986,1.6006,1.5999,1.6007,1.6022,1.6032,1.6051,1.603,1.6056,1.6057,1.6052,1.6088,1.6092,1.6122,1.6077,1.6078,1.6078,0,1.5853,1.5871,1.5907,1.5927,1.5935,1.5952,1.5974,1.599,1.6008,1.6013,1.6028,1.603,1.6054,1.6042,1.6075,1.606,1.6071,1.6078,1.608,1.6082,1.6069,1.6092,1.6132,1.6137,1.6085,1.6085,1.6084,0,1.5871,1.5904,1.5931,1.594,1.5963,1.5976,1.5986,1.6003,1.6016,1.6034,1.6043,1.6064,1.6075,1.6091,1.61,1.609,1.6132,1.6121,1.6137,1.6137,1.6146,1.6145,1.6188,1.6153,1.6153,1.6152,1.6152,0,1.5902,1.5924,1.5939,1.5955,1.5981,1.5989,1.6014,1.6024,1.6039,1.6058,1.606,1.6078,1.6088,1.6107,1.6113,1.614,1.6145,1.615,1.6152,1.615,1.615,1.6158,1.6156,1.6154,1.6153,1.6153,1.6153,0,1.5926,1.5937,1.5966,1.5986,1.5992,1.601,1.6027,1.6043,1.6052,1.6076,1.6082,1.6096,1.6119,1.6129,1.6157,1.6161,1.6192,1.6192,1.6186,1.6187,1.6203,1.6201,1.6253,1.626,1.6219,1.622,1.622,0,1.5945,1.5963,1.5985,1.5998,1.6009,1.6029,1.6043,1.6052,1.6066,1.6089,1.6102,1.6125,1.6144,1.618,1.6193,1.6214,1.6215,1.6232,1.6218,1.6217,1.6216,1.6215,1.6217,1.6234,1.6235,1.6235,1.6235,0,1.5979,1.5984,1.6003,1.6025,1.6041,1.6059,1.6076,1.6086,1.6098,1.6114,1.6138,1.6152,1.6181,1.6204,1.6227,1.6238,1.6239,1.6239,1.6245,1.6243,1.6239,1.6242,1.6193,1.6238,1.6238,1.6238,1.6237,1.6237,1.6001,1.6017,1.6036,1.6058,1.6072,1.6089,1.6105,1.6117,1.6137,1.6161,1.6166,1.6191,1.6209,1.624,1.6252,1.6272,1.6268,1.6275,1.6277,1.6279,1.628,1.6236,1.6276,1.6276,1.6276,1.6276,1.6276,0,1.6035,1.6048,1.6068,1.6093,1.611,1.611,1.613,1.6144,1.6167,1.6184,1.6203,1.623,1.6253,1.6268,1.6291,1.6305,1.6306,1.6311,1.631,1.6312,1.6282,1.6276,1.6309,1.6309,1.6309,1.6309,1.6309,1.6309,1.6055,1.6082,1.609,1.6125,1.6137,1.6162,1.6173,1.6189,1.6203,1.6234,1.6253,1.6263,1.628,1.6304,1.6325,1.6329,1.6338,1.6343,1.6347,1.6318,1.6314,1.6311,1.6305,1.6344,1.6344,1.6375,1.6376,1.6376]},{"header":{"parameterUnit":"m.s-1","parameterCategory":1,"la1":30.2991,"la2":30.254,"lo1":-89.0895,"lo2":-89.0444,"dy":0.0017,"dx":0.0017,"nx":28,"ny":28,"refTime":"2024-02-24T03:00:00:Z","depth":0,"parameterNumber":3,"parameterNumberName":"V-component_of_WINDS"},"data":[0,0,0,0,0,0,0,0,0,0,0,0,0,0,0,0,0,0,0,0,0,0,0,0,0,0,0,0,0,0,0,0,0,0,0,0,0,0,0,0,0,0,0,0,0,0,0,0,0,0,0,0,0,0,0,0,0,0,-2.4753,-2.4754,0,-2.4832,-2.4833,-2.4834,-2.4829,-2.4828,-2.4827,-2.4826,-2.4905,-2.4908,-2.4912,0,0,0,0,0,0,0,0,0,0,0,0,0,-2.4598,-2.4601,-2.4753,-2.4754,-2.4755,-2.4832,-2.4833,-2.4834,-2.4829,-2.4828,-2.4826,-2.4825,-2.4904,-2.4908,-2.4912,0,0,0,0,0,0,0,0,0,0,0,0,0,-2.467,-2.4602,-2.4753,-2.4762,-2.4763,-2.4832,-2.4833,-2.4834,-2.483,-2.4828,-2.4826,-2.4825,-2.4903,-2.4908,-2.4912,-2.4976,0,0,-2.4927,-2.4929,0,0,0,0,0,0,0,0,-2.4666,-2.4676,-2.4759,-2.4761,-2.4763,-2.4819,-2.4808,-2.4882,-2.483,-2.4804,-2.4826,-2.4824,-2.4878,-2.4885,-2.4903,-2.498,-2.4983,-2.4927,-2.493,-2.4932,-2.4934,0,0,0,0,0,0,0,-2.4661,-2.4672,-2.4784,-2.4761,-2.4763,-2.4762,-2.477,-2.4822,-2.485,-2.4807,-2.4806,-2.4816,-2.4879,-2.4899,-2.4905,-2.4985,-2.4927,-2.4932,-2.4934,-2.4936,-2.512,-2.5122,0,0,0,0,0,0,-2.4654,-2.4668,-2.4782,-2.4787,-2.4709,-2.4766,-2.4776,-2.4803,-2.4849,-2.4855,-2.4817,-2.4815,-2.4891,-2.4899,-2.4908,-2.4987,-2.4932,-2.4937,-2.494,-2.5118,-2.5121,-2.5123,0,0,0,0,0,0,-2.4651,-2.4664,-2.4778,-2.4727,-2.4742,-2.4771,-2.4801,-2.4805,-2.4825,-2.4857,-2.4862,-2.4833,-2.489,-2.4901,-2.496,-2.499,-2.4939,-2.4943,-2.5116,-2.5119,-2.5122,-2.5145,0,0,0,0,0,0,-2.4646,-2.4663,-2.4687,-2.4728,-2.4745,-2.4829,-2.4803,-2.4808,-2.4834,-2.4832,-2.4873,-2.4878,-2.489,-2.4953,-2.4965,-2.4995,-2.4947,-2.5113,-2.5117,-2.5121,-2.5142,-2.5149,-2.5155,0,0,0,0,0,-2.4641,-2.469,-2.4688,-2.4702,-2.4776,-2.4831,-2.484,-2.4853,-2.4836,-2.4861,-2.4882,-2.4877,-2.4985,-2.4959,-2.4972,-2.5005,-2.5112,-2.5116,-2.5121,-2.5139,-2.5147,-2.5154,0,0,0,0,0,0,-2.4651,-2.4695,-2.4694,-2.4758,-2.4791,-2.483,-2.4862,-2.4861,-2.4899,-2.4896,-2.4909,-2.4919,-2.4978,-2.4997,-2.4968,-2.507,-2.5046,-2.5053,-2.5055,-2.5064,-2.507,-2.5064,-2.4951,0,0,0,0,0,-2.4661,-2.4702,-2.4739,-2.4791,-2.4808,-2.4832,-2.4857,-2.4864,-2.4898,-2.4912,-2.4937,-2.497,-2.5012,-2.5039,-2.5079,-2.5145,-2.5155,-2.5174,-2.5181,-2.5186,-2.5192,-2.523,-2.5239,-2.5138,-2.5138,-2.5138,0,0,-2.4681,-2.4711,-2.4735,-2.4794,-2.4821,-2.4863,-2.4844,-2.4889,-2.4921,-2.4919,-2.4976,-2.4996,-2.5034,-2.5098,-2.5127,-2.5115,-2.5222,-2.5191,-2.5195,-2.5199,-2.5236,-2.5245,-2.5254,-2.5141,-2.514,-2.514,0,0,-2.474,-2.4766,-2.4814,-2.4841,-2.4882,-2.4898,-2.491,-2.495,-2.4963,-2.5021,-2.5021,-2.5059,-2.513,-2.5158,-2.5181,-2.5254,-2.5251,-2.5267,-2.5299,-2.5336,-2.5344,-2.5351,-2.5378,-2.5388,-2.5273,-2.5273,-2.5273,0,-2.476,-2.4825,-2.4838,-2.4885,-2.4912,-2.4913,-2.4962,-2.4987,-2.5038,-2.5057,-2.5044,-2.5134,-2.516,-2.5231,-2.5249,-2.5267,-2.5282,-2.5261,-2.5342,-2.5349,-2.5356,-2.5382,-2.5392,-2.5274,-2.5274,-2.5274,-2.5274,0,-2.4848,-2.4893,-2.4927,-2.4977,-2.5008,-2.5055,-2.5077,-2.5106,-2.5111,-2.5129,-2.5189,-2.5221,-2.5268,-2.5285,-2.529,-2.5357,-2.5349,-2.5339,-2.5315,-2.5367,-2.5392,-2.5402,-2.5277,-2.5276,-2.5276,-2.5275,0,0,-2.4914,-2.4974,-2.4986,-2.501,-2.5056,-2.5091,-2.5139,-2.5186,-2.5211,-2.5247,-2.5289,-2.535,-2.5342,-2.5368,-2.5377,-2.5409,-2.5467,-2.5395,-2.5396,-2.5408,-2.5544,-2.5552,-2.5563,-2.5465,-2.5467,-2.5469,-2.5541,0,-2.4978,-2.5064,-2.5079,-2.5154,-2.5196,-2.5199,-2.5242,-2.5275,-2.5293,-2.5332,-2.5352,-2.5396,-2.5381,-2.5398,-2.543,-2.5453,-2.5494,-2.5448,-2.5504,-2.5506,-2.5494,-2.5575,-2.5583,-2.565,-2.5551,-2.5552,-2.5554,0,-2.5064,-2.5103,-2.5183,-2.5226,-2.5244,-2.5282,-2.5327,-2.5364,-2.5402,-2.5414,-2.5445,-2.545,-2.5501,-2.5476,-2.5547,-2.5515,-2.5539,-2.5554,-2.5557,-2.5562,-2.5533,-2.5584,-2.5671,-2.5682,-2.5569,-2.5567,-2.5566,0,-2.5105,-2.5178,-2.5236,-2.5256,-2.5307,-2.5333,-2.5356,-2.5392,-2.542,-2.546,-2.5479,-2.5524,-2.5549,-2.5584,-2.5601,-2.5581,-2.5672,-2.5647,-2.5683,-2.5683,-2.5702,-2.57,-2.5795,-2.5717,-2.5717,-2.5717,-2.5716,0,-2.5175,-2.5224,-2.5255,-2.5291,-2.5346,-2.5363,-2.5418,-2.544,-2.5473,-2.5513,-2.5518,-2.5556,-2.5577,-2.5618,-2.5632,-2.569,-2.57,-2.5711,-2.5715,-2.5711,-2.571,-2.5727,-2.5723,-2.5719,-2.5719,-2.5718,-2.5718,0,-2.5229,-2.5252,-2.5316,-2.5359,-2.5372,-2.5411,-2.5448,-2.5483,-2.5502,-2.5553,-2.5566,-2.5597,-2.5645,-2.5667,-2.5727,-2.5736,-2.5803,-2.5802,-2.579,-2.5791,-2.5826,-2.5823,-2.5935,-2.5952,-2.5862,-2.5863,-2.5864,0,-2.5273,-2.5311,-2.5359,-2.5387,-2.541,-2.5454,-2.5484,-2.5503,-2.5533,-2.5581,-2.5611,-2.566,-2.57,-2.5779,-2.5806,-2.5852,-2.5853,-2.589,-2.586,-2.5856,-2.5855,-2.5853,-2.5857,-2.5895,-2.5896,-2.5896,-2.5897,0,-2.5347,-2.5357,-2.5399,-2.5447,-2.5482,-2.5519,-2.5556,-2.5579,-2.5604,-2.5638,-2.5689,-2.572,-2.5782,-2.5832,-2.588,-2.5903,-2.5905,-2.5906,-2.5917,-2.5914,-2.5906,-2.5912,-2.5805,-2.5903,-2.5903,-2.5902,-2.5902,-2.5902,-2.5398,-2.5432,-2.5473,-2.552,-2.555,-2.5585,-2.5621,-2.5646,-2.5688,-2.5741,-2.575,-2.5804,-2.5844,-2.5909,-2.5935,-2.5978,-2.5969,-2.5984,-2.5989,-2.5992,-2.5995,-2.5899,-2.5987,-2.5986,-2.5986,-2.5986,-2.5986,0,-2.5473,-2.55,-2.5543,-2.5596,-2.5634,-2.5633,-2.5674,-2.5706,-2.5754,-2.5791,-2.5831,-2.589,-2.5939,-2.5971,-2.602,-2.6049,-2.6051,-2.6061,-2.6059,-2.6065,-2.5999,-2.5985,-2.6059,-2.6059,-2.6059,-2.6059,-2.6059,-2.6059,-2.5517,-2.5576,-2.5591,-2.5666,-2.5692,-2.5746,-2.577,-2.5803,-2.5833,-2.5899,-2.594,-2.5961,-2.5996,-2.6049,-2.6094,-2.6102,-2.612,-2.6131,-2.6139,-2.6077,-2.6069,-2.6062,-2.6049,-2.6135,-2.6135,-2.6201,-2.6202,-2.6202]}]]